Weather History for Darwin Airport, Northern Territory

Change the Weather History Date:

Saturday, August 31, 2013

  Actual Average Record
Temperature  
Mean Temperature 82 °F -  
Max Temperature 91 °F 91 °F - ()
Min Temperature 73 °F 74 °F - ()
Cooling Degree Days 17    
Growing Degree Days 32 (Base 50)    
Moisture  
Dew Point 68 °F    
Average Humidity 64    
Maximum Humidity 94    
Minimum Humidity 26    
Precipitation  
Precipitation 0.00 in 0.03 in - ()
Sea Level Pressure  
Sea Level Pressure 29.92 in    
Wind  
Wind Speed 7 mph ()    
Max Wind Speed 18 mph    
Max Gust Speed -    
Visibility 8.8 miles    
Events      
T = Trace of Precipitation, MM = Missing Value Source: Averaged Metar Reports

Daily Weather History Graph

Daily Weather History Graph

Search for Another Location

Airport:

Trip Planner

Search our weather history database for the weather conditions in past years. The results will help you decide how hot, cold, wet, or windy it might be!

Date:

Astronomy

Aug. 31, 2013 Rise Set
Actual Time 6:51 AM ACST 6:42 PM ACST
Civil Twilight 6:29 AM ACST 7:03 PM ACST
Nautical Twilight 6:05 AM ACST 7:28 PM ACST
Astronomical Twilight 5:40 AM ACST 7:53 PM ACST
Moon 2:39 AM ACST (8/31) 2:26 PM ACST (8/31)
Length of Visible Light 12h 34m
Length of Day
11h 51m
Waning Crescent, 25% of the Moon is Illuminated
Aug 31
Waning Crescent
Sep 5
New
Sep 13
First Quarter
Sep 19
Full
Sep 27
Last Quarter

Hourly Weather History & Observations

Time (ACST) Temp. Heat Index Dew Point Humidity Pressure Visibility Wind Dir Wind Speed Gust Speed Precip Events Conditions
12:00 AM 78 °F - 72 °F 77% 29.92 in 19 mi WSW 5.8 mph - -   Partly Cloudy
12:30 AM 78 °F - 72 °F 77% 29.92 in - WSW 5.8 mph - -  
12:30 AM 78.8 °F - 71.6 °F 78% 29.92 in 6.2 mi WSW 5.8 mph - N/A   Partly Cloudy
1:00 AM 77.0 °F - 71.6 °F 83% 29.92 in 6.2 mi SSW 5.8 mph - N/A   Partly Cloudy
1:30 AM 75.2 °F - 71.6 °F 89% 29.92 in 6.2 mi South 4.6 mph - N/A   Partly Cloudy
2:00 AM 75.2 °F - 71.6 °F 89% 29.89 in 6.2 mi SW 5.8 mph - N/A   Partly Cloudy
2:30 AM 77.0 °F - 71.6 °F 83% 29.89 in 6.2 mi South 6.9 mph - N/A   Partly Cloudy
3:00 AM 76 °F - 72 °F 84% 29.89 in 12 mi SSE 5.8 mph - -   Smoke
3:00 AM 77.0 °F - 71.6 °F 83% 29.89 in 6.2 mi SSE 5.8 mph - N/A   Partly Cloudy
3:30 AM 76 °F - 72 °F 84% 29.89 in - South 5.8 mph - -  
3:30 AM 75.2 °F - 71.6 °F 89% 29.89 in 6.2 mi South 5.8 mph - N/A   Partly Cloudy
4:00 AM 73.4 °F - 71.6 °F 94% 29.89 in 6.2 mi SSE 5.8 mph - N/A   Partly Cloudy
4:30 AM 73.4 °F - 71.6 °F 94% 29.89 in - SE 5.8 mph - N/A   Clear
5:00 AM 75.2 °F - 71.6 °F 89% 29.89 in 6.2 mi SE 6.9 mph - N/A   Scattered Clouds
5:30 AM 75.2 °F - 71.6 °F 89% 29.89 in 6.2 mi SSE 6.9 mph - N/A   Scattered Clouds
6:00 AM 75 °F - 72 °F 87% 29.92 in 12 mi SSE 5.8 mph - -   Smoke
6:00 AM 75.2 °F - 71.6 °F 89% 29.92 in 6.2 mi SSE 5.8 mph - N/A   Scattered Clouds
6:30 AM 76 °F - 71 °F 80% 29.93 in - East 5.8 mph - -  
6:30 AM 75.2 °F - 71.6 °F 89% 29.92 in 6.2 mi East 5.8 mph - N/A   Scattered Clouds
7:00 AM 75.2 °F - 71.6 °F 89% 29.95 in 6.2 mi ESE 5.8 mph - N/A   Scattered Clouds
7:30 AM 75.2 °F - 71.6 °F 89% 29.95 in - SE 5.8 mph - N/A   Unknown
8:00 AM 77.0 °F - 69.8 °F 78% 29.98 in 6.2 mi SSE 6.9 mph - N/A   Scattered Clouds
8:30 AM 80.6 °F 84.6 °F 71.6 °F 74% 29.98 in 6.2 mi SE 5.8 mph - N/A   Scattered Clouds
9:00 AM 83 °F - 68 °F 51% 29.99 in 19 mi East 8.1 mph - -   Partly Cloudy
9:00 AM 82.4 °F 85.4 °F 68.0 °F 62% 29.98 in 6.2 mi East 8.1 mph - N/A   Partly Cloudy
9:30 AM 84 °F - 65 °F 44% 29.99 in - ENE 9.2 mph - -  
9:30 AM 84.2 °F 86.6 °F 66.2 °F 55% 29.98 in 6.2 mi ENE 9.2 mph - N/A   Partly Cloudy
10:00 AM 84.2 °F 85.6 °F 64.4 °F 51% 29.98 in 6.2 mi ENE 10.4 mph - N/A   Partly Cloudy
10:30 AM 86.0 °F 87.3 °F 64.4 °F 48% 29.98 in 6.2 mi East 10.4 mph - N/A   Partly Cloudy
11:00 AM 87.8 °F 87.6 °F 60.8 °F 40% 29.98 in 6.2 mi ENE 10.4 mph - N/A   Partly Cloudy
11:30 AM 87.8 °F 87.6 °F 60.8 °F 40% 29.98 in - NE 13.8 mph - N/A   Clear
12:00 PM 89.6 °F 89.5 °F 60.8 °F 38% 29.95 in - ESE 5.8 mph - N/A   Clear
12:30 PM 90 °F - 60 °F 26% 29.94 in - NW 15.0 mph - -  
12:30 PM 91.4 °F 91.4 °F 60.8 °F 36% 29.92 in - NW 15.0 mph - N/A   Clear
1:00 PM 86.0 °F 90.4 °F 69.8 °F 58% 29.92 in - WNW 18.4 mph - N/A   Clear
1:30 PM 86.0 °F 89.4 °F 68.0 °F 55% 29.92 in 6.2 mi WNW 15.0 mph - N/A   Scattered Clouds
2:00 PM 86.0 °F 89.4 °F 68.0 °F 55% 29.89 in - WNW 16.1 mph - N/A   Clear
2:30 PM 86.0 °F 89.4 °F 68.0 °F 55% 29.89 in - NW 13.8 mph - N/A   Clear
3:00 PM 88 °F - 64 °F 34% 29.87 in 19 mi NNW 13.8 mph - -   Smoke
3:00 PM 87.8 °F 89.4 °F 64.4 °F 46% 29.86 in - NNW 13.8 mph - N/A   Clear
3:30 PM 89.6 °F 90.1 °F 62.6 °F 40% 29.86 in - NNW 15.0 mph - N/A   Clear
4:00 PM 87.8 °F 88.5 °F 62.6 °F 43% 29.83 in - North 12.7 mph - N/A   Clear
4:30 PM 87.8 °F 87.6 °F 60.8 °F 40% 29.83 in - North 16.1 mph - N/A   Clear
5:00 PM 87.8 °F 87.6 °F 60.8 °F 40% 29.83 in - North 13.8 mph - N/A   Clear
5:30 PM 87.8 °F 88.5 °F 62.6 °F 43% 29.86 in - North 12.7 mph - N/A   Clear
6:00 PM 86 °F - 62 °F 35% 29.86 in 19 mi NNW 10.4 mph - -   Smoke
6:00 PM 86.0 °F 86.6 °F 62.6 °F 45% 29.86 in - NNW 10.4 mph - N/A   Clear
6:30 PM 85 °F - 65 °F 41% 29.87 in - NNW 8.1 mph - -  
6:30 PM 84.2 °F 85.6 °F 64.4 °F 51% 29.86 in - NNW 8.1 mph - N/A   Clear
7:00 PM 84.2 °F 87.3 °F 68.0 °F 58% 29.89 in - NW 6.9 mph - N/A   Clear
7:30 PM 82.4 °F 85.4 °F 68.0 °F 62% 29.89 in - NW 5.8 mph - N/A   Clear
8:00 PM 80.6 °F 83.2 °F 68.0 °F 65% 29.92 in - North 5.8 mph - N/A   Clear
8:30 PM 78.8 °F - 68.0 °F 69% 29.92 in - North 3.5 mph - N/A   Clear
9:00 PM 78 °F - 69 °F 66% 29.92 in 19 mi Calm Calm - -   Partly Cloudy
9:30 PM 79 °F - 68 °F 60% 29.94 in - North 5.8 mph - -  
9:30 PM 78.8 °F - 68.0 °F 69% 29.95 in - North 5.8 mph - N/A   Clear
10:30 PM 80.6 °F 84.6 °F 71.6 °F 74% 29.95 in - WNW 10.4 mph - N/A   Clear
11:00 PM 80.6 °F 83.9 °F 69.8 °F 70% 29.95 in - West 8.1 mph - N/A   Clear
11:30 PM 78.8 °F - 69.8 °F 74% 29.98 in 6.2 mi West 5.8 mph - N/A   Mostly Cloudy